Year,Month,Day,Hour,Minute,Value (Times are PST for temperature in C)
2009,02,20,00,00,2.00
2009,02,20,00,01,2.00
2009,02,20,00,02,2.00
2009,02,20,00,03,2.00
2009,02,20,00,04,1.90
2009,02,20,00,05,1.90
2009,02,20,00,06,1.90
2009,02,20,00,07,1.90
2009,02,20,00,08,1.80
2009,02,20,00,09,1.80
2009,02,20,00,10,1.80
2009,02,20,00,11,1.80
2009,02,20,00,12,1.80
2009,02,20,00,13,1.80
2009,02,20,00,14,1.80
2009,02,20,00,15,1.80
2009,02,20,00,16,1.80
2009,02,20,00,17,1.80
2009,02,20,00,18,1.80
2009,02,20,00,19,1.80
2009,02,20,00,20,1.80
2009,02,20,00,21,1.80
2009,02,20,00,22,1.80
2009,02,20,00,23,1.80
2009,02,20,00,24,1.80
2009,02,20,00,25,1.80
2009,02,20,00,26,1.80
2009,02,20,00,27,1.70
2009,02,20,00,28,1.70
2009,02,20,00,29,1.60
2009,02,20,00,30,1.60
2009,02,20,00,31,1.50
2009,02,20,00,32,1.50
2009,02,20,00,33,1.50
2009,02,20,00,34,1.40
2009,02,20,00,35,1.40
2009,02,20,00,36,1.50
2009,02,20,00,37,1.50
2009,02,20,00,38,1.50
2009,02,20,00,39,1.50
2009,02,20,00,40,1.50
2009,02,20,00,41,1.50
2009,02,20,00,42,1.50
2009,02,20,00,43,1.50
2009,02,20,00,44,1.50
2009,02,20,00,45,1.50
2009,02,20,00,46,1.50
2009,02,20,00,47,1.50
2009,02,20,00,48,1.40
2009,02,20,00,49,1.40
2009,02,20,00,50,1.40
2009,02,20,00,51,1.40
2009,02,20,00,52,1.40
2009,02,20,00,53,1.40
2009,02,20,00,54,1.40
2009,02,20,00,55,1.40
2009,02,20,00,56,1.50
2009,02,20,00,57,1.50
2009,02,20,00,58,1.50
2009,02,20,00,59,1.50
2009,02,20,01,00,1.50
2009,02,20,01,01,1.50
2009,02,20,01,02,1.50
2009,02,20,01,03,1.50
2009,02,20,01,04,1.50
2009,02,20,01,05,1.50
2009,02,20,01,06,1.40
2009,02,20,01,07,1.40
2009,02,20,01,08,1.40
2009,02,20,01,09,1.40
2009,02,20,01,10,1.40
2009,02,20,01,11,1.40
2009,02,20,01,12,1.40
2009,02,20,01,13,1.40
2009,02,20,01,14,1.40
2009,02,20,01,15,1.40
2009,02,20,01,16,1.40
2009,02,20,01,17,1.30
2009,02,20,01,18,1.30
2009,02,20,01,19,1.30
2009,02,20,01,20,1.30
2009,02,20,01,21,1.30
2009,02,20,01,22,1.30
2009,02,20,01,23,1.30
2009,02,20,01,24,1.20
2009,02,20,01,25,1.20
2009,02,20,01,26,1.10
2009,02,20,01,27,1.10
2009,02,20,01,28,1.10
2009,02,20,01,29,1.10
2009,02,20,01,30,1.10
2009,02,20,01,31,1.20
2009,02,20,01,32,1.20
2009,02,20,01,33,1.20
2009,02,20,01,34,1.10
2009,02,20,01,35,1.10
2009,02,20,01,36,1.10
2009,02,20,01,37,1.10
2009,02,20,01,38,1.00
2009,02,20,01,39,1.00
2009,02,20,01,40,1.00
2009,02,20,01,41,1.00
2009,02,20,01,42,1.00
2009,02,20,01,43,1.00
2009,02,20,01,44,1.00
2009,02,20,01,45,1.00
2009,02,20,01,46,1.00
2009,02,20,01,47,1.00
2009,02,20,01,48,1.00
2009,02,20,01,49,1.00
2009,02,20,01,50,1.00
2009,02,20,01,51,0.90
2009,02,20,01,52,0.90
2009,02,20,01,53,0.90
2009,02,20,01,54,0.90
2009,02,20,01,55,0.90
2009,02,20,01,56,0.90
2009,02,20,01,57,0.90
2009,02,20,01,58,0.90
2009,02,20,01,59,0.90
2009,02,20,02,00,0.90
2009,02,20,02,01,0.90
2009,02,20,02,02,0.90
2009,02,20,02,03,0.90
2009,02,20,02,04,0.90
2009,02,20,02,05,0.90
2009,02,20,02,06,1.00
2009,02,20,02,07,1.00
2009,02,20,02,08,1.00
2009,02,20,02,09,1.00
2009,02,20,02,10,0.90
2009,02,20,02,11,0.90
2009,02,20,02,12,0.90
2009,02,20,02,13,0.90
2009,02,20,02,14,0.90
2009,02,20,02,15,0.90
2009,02,20,02,16,0.90
2009,02,20,02,17,0.80
2009,02,20,02,18,0.80
2009,02,20,02,19,0.80
2009,02,20,02,20,0.80
2009,02,20,02,21,0.80
2009,02,20,02,22,0.70
2009,02,20,02,23,0.70
2009,02,20,02,24,0.70
2009,02,20,02,25,0.70
2009,02,20,02,26,0.70
2009,02,20,02,27,0.70
2009,02,20,02,28,0.80
2009,02,20,02,29,0.80
2009,02,20,02,30,0.80
2009,02,20,02,31,0.80
2009,02,20,02,32,0.80
2009,02,20,02,33,0.80
2009,02,20,02,34,0.80
2009,02,20,02,35,0.80
2009,02,20,02,36,0.80
2009,02,20,02,37,0.80
2009,02,20,02,38,0.80
2009,02,20,02,39,0.70
2009,02,20,02,40,0.70
2009,02,20,02,41,0.80
2009,02,20,02,42,0.80
2009,02,20,02,43,0.80
2009,02,20,02,44,0.80
2009,02,20,02,45,0.80
2009,02,20,02,46,0.80
2009,02,20,02,47,0.80
2009,02,20,02,48,0.80
2009,02,20,02,49,0.70
2009,02,20,02,50,0.70
2009,02,20,02,51,0.80
2009,02,20,02,52,0.80
2009,02,20,02,53,0.80
2009,02,20,02,54,0.80
2009,02,20,02,55,0.80
2009,02,20,02,56,0.80
2009,02,20,02,57,0.80
2009,02,20,02,58,0.80
2009,02,20,02,59,0.80
2009,02,20,03,00,0.80
2009,02,20,03,01,0.80
2009,02,20,03,02,0.80
2009,02,20,03,03,0.80
2009,02,20,03,04,0.90
2009,02,20,03,05,0.90
2009,02,20,03,06,1.00
2009,02,20,03,07,1.00
2009,02,20,03,08,1.10
2009,02,20,03,09,1.10
2009,02,20,03,10,1.20
2009,02,20,03,11,1.20
2009,02,20,03,12,1.30
2009,02,20,03,13,1.30
2009,02,20,03,14,1.30
2009,02,20,03,15,1.30
2009,02,20,03,16,1.30
2009,02,20,03,17,1.20
2009,02,20,03,18,1.10
2009,02,20,03,19,1.10
2009,02,20,03,20,1.00
2009,02,20,03,21,1.00
2009,02,20,03,22,0.90
2009,02,20,03,23,0.80
2009,02,20,03,24,0.80
2009,02,20,03,25,0.80
2009,02,20,03,26,0.70
2009,02,20,03,27,0.70
2009,02,20,03,28,0.70
2009,02,20,03,29,0.70
2009,02,20,03,30,0.70
2009,02,20,03,31,0.80
2009,02,20,03,32,0.80
2009,02,20,03,33,0.70
2009,02,20,03,34,0.70
2009,02,20,03,35,0.70
2009,02,20,03,36,0.70
2009,02,20,03,37,0.70
2009,02,20,03,38,0.70
2009,02,20,03,39,0.70
2009,02,20,03,40,0.70
2009,02,20,03,41,0.70
2009,02,20,03,42,0.70
2009,02,20,03,43,0.60
2009,02,20,03,44,0.60
2009,02,20,03,45,0.60
2009,02,20,03,46,0.60
2009,02,20,03,47,0.60
2009,02,20,03,48,0.60
2009,02,20,03,49,0.60
2009,02,20,03,50,0.60
2009,02,20,03,51,0.70
2009,02,20,03,52,0.70
2009,02,20,03,53,0.70
2009,02,20,03,54,0.70
2009,02,20,03,55,0.70
2009,02,20,03,56,0.70
2009,02,20,03,57,0.80
2009,02,20,03,58,0.80
2009,02,20,03,59,0.80
2009,02,20,04,00,0.80
2009,02,20,04,01,0.90
2009,02,20,04,02,0.90
2009,02,20,04,03,0.90
2009,02,20,04,04,0.90
2009,02,20,04,05,0.90
2009,02,20,04,06,0.90
2009,02,20,04,07,0.90
2009,02,20,04,08,0.80
2009,02,20,04,09,0.90
2009,02,20,04,10,0.90
2009,02,20,04,11,0.90
2009,02,20,04,12,0.90
2009,02,20,04,13,0.80
2009,02,20,04,14,0.80
2009,02,20,04,15,0.80
2009,02,20,04,16,0.80
2009,02,20,04,17,0.80
2009,02,20,04,18,0.80
2009,02,20,04,19,0.80
2009,02,20,04,20,0.70
2009,02,20,04,21,0.70
2009,02,20,04,22,0.70
2009,02,20,04,23,0.70
2009,02,20,04,24,0.70
2009,02,20,04,25,0.70
2009,02,20,04,26,0.70
2009,02,20,04,27,0.60
2009,02,20,04,28,0.60
2009,02,20,04,29,0.50
2009,02,20,04,30,0.50
2009,02,20,04,31,0.50
2009,02,20,04,32,0.50
2009,02,20,04,33,0.50
2009,02,20,04,34,0.50
2009,02,20,04,35,0.50
2009,02,20,04,36,0.50
2009,02,20,04,37,0.50
2009,02,20,04,38,0.50
2009,02,20,04,39,0.50
2009,02,20,04,40,0.50
2009,02,20,04,41,0.50
2009,02,20,04,42,0.50
2009,02,20,04,43,0.50
2009,02,20,04,44,0.50
2009,02,20,04,45,0.60
2009,02,20,04,46,0.60
2009,02,20,04,47,0.70
2009,02,20,04,48,0.70
2009,02,20,04,49,0.80
2009,02,20,04,50,0.80
2009,02,20,04,51,0.80
2009,02,20,04,52,0.80
2009,02,20,04,53,0.80
2009,02,20,04,54,0.80
2009,02,20,04,55,0.80
2009,02,20,04,56,0.80
2009,02,20,04,57,0.80
2009,02,20,04,58,0.80
2009,02,20,04,59,0.80
2009,02,20,05,00,0.80
2009,02,20,05,01,0.90
2009,02,20,05,02,0.90
2009,02,20,05,03,0.90
2009,02,20,05,04,0.90
2009,02,20,05,05,0.90
2009,02,20,05,06,0.90
2009,02,20,05,07,0.90
2009,02,20,05,08,0.80
2009,02,20,05,09,0.80
2009,02,20,05,10,0.80
2009,02,20,05,11,0.80
2009,02,20,05,12,0.80
2009,02,20,05,13,0.70
2009,02,20,05,14,0.70
2009,02,20,05,15,0.70
2009,02,20,05,16,0.70
2009,02,20,05,17,0.70
2009,02,20,05,18,0.70
2009,02,20,05,19,0.70
2009,02,20,05,20,0.70
2009,02,20,05,21,0.70
2009,02,20,05,22,0.70
2009,02,20,05,23,0.60
2009,02,20,05,24,0.60
2009,02,20,05,25,0.60
2009,02,20,05,26,0.60
2009,02,20,05,27,0.60
2009,02,20,05,28,0.70
2009,02,20,05,29,0.70
2009,02,20,05,30,0.70
2009,02,20,05,31,0.80
2009,02,20,05,32,0.80
2009,02,20,05,33,0.80
2009,02,20,05,34,0.90
2009,02,20,05,35,0.90
2009,02,20,05,36,1.00
2009,02,20,05,37,1.10
2009,02,20,05,38,1.20
2009,02,20,05,39,1.30
2009,02,20,05,40,1.30
2009,02,20,05,41,1.30
2009,02,20,05,42,1.30
2009,02,20,05,43,1.30
2009,02,20,05,44,1.20
2009,02,20,05,45,1.10
2009,02,20,05,46,1.00
2009,02,20,05,47,1.00
2009,02,20,05,48,0.90
2009,02,20,05,49,0.90
2009,02,20,05,50,0.80
2009,02,20,05,51,0.80
2009,02,20,05,52,0.80
2009,02,20,05,53,0.80
2009,02,20,05,54,0.80
2009,02,20,05,55,0.80
2009,02,20,05,56,0.80
2009,02,20,05,57,0.80
2009,02,20,05,58,0.90
2009,02,20,05,59,0.90
2009,02,20,06,00,0.90
2009,02,20,06,01,0.90
2009,02,20,06,02,0.90
2009,02,20,06,03,0.90
2009,02,20,06,04,0.90
2009,02,20,06,05,0.90
2009,02,20,06,06,0.90
2009,02,20,06,07,0.90
2009,02,20,06,08,0.90
2009,02,20,06,09,0.90
2009,02,20,06,10,0.80
2009,02,20,06,11,0.80
2009,02,20,06,12,0.80
2009,02,20,06,13,0.80
2009,02,20,06,14,0.80
2009,02,20,06,15,0.80
2009,02,20,06,16,0.80
2009,02,20,06,17,0.80
2009,02,20,06,18,0.80
2009,02,20,06,19,0.80
2009,02,20,06,20,0.90
2009,02,20,06,21,0.90
2009,02,20,06,22,1.00
2009,02,20,06,23,1.00
2009,02,20,06,24,1.00
2009,02,20,06,25,1.00
2009,02,20,06,26,1.00
2009,02,20,06,27,0.90
2009,02,20,06,28,0.80
2009,02,20,06,29,0.80
2009,02,20,06,30,0.70
2009,02,20,06,31,0.70
2009,02,20,06,32,0.70
2009,02,20,06,33,0.70
2009,02,20,06,34,0.80
2009,02,20,06,35,0.80
2009,02,20,06,36,0.80
2009,02,20,06,37,0.70
2009,02,20,06,38,0.70
2009,02,20,06,39,0.70
2009,02,20,06,40,0.70
2009,02,20,06,41,0.70
2009,02,20,06,42,0.70
2009,02,20,06,43,0.70
2009,02,20,06,44,0.70
2009,02,20,06,45,0.70
2009,02,20,06,46,0.70
2009,02,20,06,47,0.70
2009,02,20,06,48,0.70
2009,02,20,06,49,0.70
2009,02,20,06,50,0.70
2009,02,20,06,51,0.70
2009,02,20,06,52,0.80
2009,02,20,06,53,0.80
2009,02,20,06,54,0.80
2009,02,20,06,55,0.80
2009,02,20,06,56,0.80
2009,02,20,06,57,0.80
2009,02,20,06,58,0.80
2009,02,20,06,59,0.80
2009,02,20,07,00,0.80
2009,02,20,07,01,0.70
2009,02,20,07,02,0.70
2009,02,20,07,03,0.70
2009,02,20,07,04,0.70
2009,02,20,07,05,0.70
2009,02,20,07,06,0.70
2009,02,20,07,07,0.80
2009,02,20,07,08,0.80
2009,02,20,07,09,0.80
2009,02,20,07,10,0.80
2009,02,20,07,11,0.80
2009,02,20,07,12,0.80
2009,02,20,07,13,0.70
2009,02,20,07,14,0.70
2009,02,20,07,15,0.70
2009,02,20,07,16,0.70
2009,02,20,07,17,0.70
2009,02,20,07,18,0.60
2009,02,20,07,19,0.60
2009,02,20,07,20,0.60
2009,02,20,07,21,0.60
2009,02,20,07,22,0.60
2009,02,20,07,23,0.60
2009,02,20,07,24,0.50
2009,02,20,07,25,0.50
2009,02,20,07,26,0.50
2009,02,20,07,27,0.50
2009,02,20,07,28,0.60
2009,02,20,07,29,0.60
2009,02,20,07,30,0.70
2009,02,20,07,31,0.70
2009,02,20,07,32,0.80
2009,02,20,07,33,0.80
2009,02,20,07,34,0.80
2009,02,20,07,35,0.80
2009,02,20,07,36,0.80
2009,02,20,07,37,0.80
2009,02,20,07,38,0.80
2009,02,20,07,39,0.80
2009,02,20,07,40,0.80
2009,02,20,07,41,0.90
2009,02,20,07,42,0.90
2009,02,20,07,43,1.00
2009,02,20,07,44,1.00
2009,02,20,07,45,1.10
2009,02,20,07,46,1.10
2009,02,20,07,47,1.20
2009,02,20,07,48,1.20
2009,02,20,07,49,1.30
2009,02,20,07,50,1.30
2009,02,20,07,51,1.30
2009,02,20,07,52,1.40
2009,02,20,07,53,1.50
2009,02,20,07,54,1.50
2009,02,20,07,55,1.60
2009,02,20,07,56,1.70
2009,02,20,07,57,1.70
2009,02,20,07,58,1.80
2009,02,20,07,59,1.80
2009,02,20,08,00,1.90
2009,02,20,08,01,2.00
2009,02,20,08,02,2.00
2009,02,20,08,03,2.10
2009,02,20,08,04,2.10
2009,02,20,08,05,2.20
2009,02,20,08,06,2.20
2009,02,20,08,07,2.20
2009,02,20,08,08,2.20
2009,02,20,08,09,2.30
2009,02,20,08,10,2.30
2009,02,20,08,11,2.40
2009,02,20,08,12,2.40
2009,02,20,08,13,2.50
2009,02,20,08,14,2.50
2009,02,20,08,15,2.40
2009,02,20,08,16,2.40
2009,02,20,08,17,2.40
2009,02,20,08,18,2.30
2009,02,20,08,19,2.30
2009,02,20,08,20,2.40
2009,02,20,08,21,2.40
2009,02,20,08,22,2.50
2009,02,20,08,23,2.50
2009,02,20,08,24,2.60
2009,02,20,08,25,2.60
2009,02,20,08,26,2.70
2009,02,20,08,27,2.70
2009,02,20,08,28,2.70
2009,02,20,08,29,2.80
2009,02,20,08,30,2.80
2009,02,20,08,31,2.90
2009,02,20,08,32,2.90
2009,02,20,08,33,2.90
2009,02,20,08,34,2.90
2009,02,20,08,35,3.00
2009,02,20,08,36,3.10
2009,02,20,08,37,3.10
2009,02,20,08,38,3.10
2009,02,20,08,39,3.20
2009,02,20,08,40,3.20
2009,02,20,08,41,3.30
2009,02,20,08,42,3.30
2009,02,20,08,43,3.30
2009,02,20,08,44,3.40
2009,02,20,08,45,3.50
2009,02,20,08,46,3.50
2009,02,20,08,47,3.60
2009,02,20,08,48,3.70
2009,02,20,08,49,3.80
2009,02,20,08,50,3.80
2009,02,20,08,51,3.90
2009,02,20,08,52,3.90
2009,02,20,08,53,4.00
2009,02,20,08,54,4.00
2009,02,20,08,55,4.10
2009,02,20,08,56,4.20
2009,02,20,08,57,4.20
2009,02,20,08,58,4.30
2009,02,20,08,59,4.30
2009,02,20,09,00,4.40
2009,02,20,09,01,4.40
2009,02,20,09,02,4.50
2009,02,20,09,03,4.60
2009,02,20,09,04,4.60
2009,02,20,09,05,4.70
2009,02,20,09,06,4.80
2009,02,20,09,07,4.80
2009,02,20,09,08,4.90
2009,02,20,09,09,4.90
2009,02,20,09,10,5.00
2009,02,20,09,11,5.10
2009,02,20,09,12,5.10
2009,02,20,09,13,5.20
2009,02,20,09,14,5.20
2009,02,20,09,15,5.30
2009,02,20,09,16,5.30
2009,02,20,09,17,5.40
2009,02,20,09,18,5.40
2009,02,20,09,19,5.50
2009,02,20,09,20,5.50
2009,02,20,09,21,5.60
2009,02,20,09,22,5.60
2009,02,20,09,23,5.60
2009,02,20,09,24,5.60
2009,02,20,09,25,5.70
2009,02,20,09,26,5.70
2009,02,20,09,27,5.80
2009,02,20,09,28,5.80
2009,02,20,09,29,5.90
2009,02,20,09,30,5.90
2009,02,20,09,31,6.00
2009,02,20,09,32,6.00
2009,02,20,09,33,6.10
2009,02,20,09,34,6.10
2009,02,20,09,35,6.20
2009,02,20,09,36,6.20
2009,02,20,09,37,6.20
2009,02,20,09,38,6.20
2009,02,20,09,39,6.30
2009,02,20,09,40,6.30
2009,02,20,09,41,6.30
2009,02,20,09,42,6.40
2009,02,20,09,43,6.40
2009,02,20,09,44,6.40
2009,02,20,09,45,6.50
2009,02,20,09,46,6.60
2009,02,20,09,47,6.60
2009,02,20,09,48,6.60
2009,02,20,09,49,6.60
2009,02,20,09,50,6.60
2009,02,20,09,51,6.70
2009,02,20,09,52,6.70
2009,02,20,09,53,6.80
2009,02,20,09,54,6.80
2009,02,20,09,55,6.80
2009,02,20,09,56,6.80
2009,02,20,09,57,6.80
2009,02,20,09,58,6.80
2009,02,20,09,59,6.80
2009,02,20,10,00,6.80
2009,02,20,10,01,6.90
2009,02,20,10,02,6.90
2009,02,20,10,03,6.90
2009,02,20,10,04,6.80
2009,02,20,10,05,6.90
2009,02,20,10,06,6.90
2009,02,20,10,07,6.90
2009,02,20,10,08,6.90
2009,02,20,10,09,6.90
2009,02,20,10,10,6.90
2009,02,20,10,11,7.00
2009,02,20,10,12,7.00
2009,02,20,10,13,7.00
2009,02,20,10,14,7.00
2009,02,20,10,15,7.00
2009,02,20,10,16,7.10
2009,02,20,10,17,7.10
2009,02,20,10,18,7.10
2009,02,20,10,19,7.20
2009,02,20,10,20,7.20
2009,02,20,10,21,7.10
2009,02,20,10,22,7.10
2009,02,20,10,23,7.00
2009,02,20,10,24,7.00
2009,02,20,10,25,7.00
2009,02,20,10,26,7.10
2009,02,20,10,27,7.20
2009,02,20,10,28,7.20
2009,02,20,10,29,7.20
2009,02,20,10,30,7.30
2009,02,20,10,31,7.30
2009,02,20,10,32,7.30
2009,02,20,10,33,7.30
2009,02,20,10,34,7.30
2009,02,20,10,35,7.20
2009,02,20,10,36,7.20
2009,02,20,10,37,7.30
2009,02,20,10,38,7.30
2009,02,20,10,39,7.40
2009,02,20,10,40,7.40
2009,02,20,10,41,7.50
2009,02,20,10,42,7.60
2009,02,20,10,43,7.60
2009,02,20,10,44,7.70
2009,02,20,10,45,7.70
2009,02,20,10,46,7.70
2009,02,20,10,47,7.70
2009,02,20,10,48,7.70
2009,02,20,10,49,7.70
2009,02,20,10,50,7.70
2009,02,20,10,51,7.60
2009,02,20,10,52,7.60
2009,02,20,10,53,7.50
2009,02,20,10,54,7.50
2009,02,20,10,55,7.50
2009,02,20,10,56,7.50
2009,02,20,10,57,7.60
2009,02,20,10,58,7.60
2009,02,20,10,59,7.60
2009,02,20,11,00,7.60
2009,02,20,11,01,7.60
2009,02,20,11,02,7.70
2009,02,20,11,03,7.60
2009,02,20,11,04,7.60
2009,02,20,11,05,7.60
2009,02,20,11,06,7.60
2009,02,20,11,07,7.60
2009,02,20,11,08,7.60
2009,02,20,11,09,7.60
2009,02,20,11,10,7.70
2009,02,20,11,11,7.80
2009,02,20,11,12,7.90
2009,02,20,11,13,8.00
2009,02,20,11,14,8.10
2009,02,20,11,15,8.10
2009,02,20,11,16,8.10
2009,02,20,11,17,8.20
2009,02,20,11,18,8.30
2009,02,20,11,19,8.30
2009,02,20,11,20,8.30
2009,02,20,11,21,8.30
2009,02,20,11,22,8.20
2009,02,20,11,23,8.20
2009,02,20,11,24,8.20
2009,02,20,11,25,8.20
2009,02,20,11,26,8.10
2009,02,20,11,27,8.10
2009,02,20,11,28,8.10
2009,02,20,11,29,8.00
2009,02,20,11,30,8.00
2009,02,20,11,31,8.00
2009,02,20,11,32,8.00
2009,02,20,11,33,8.00
2009,02,20,11,34,8.10
2009,02,20,11,35,8.20
2009,02,20,11,36,8.20
2009,02,20,11,37,8.20
2009,02,20,11,38,8.20
2009,02,20,11,39,8.30
2009,02,20,11,40,8.40
2009,02,20,11,41,8.50
2009,02,20,11,42,8.50
2009,02,20,11,43,8.50
2009,02,20,11,44,8.50
2009,02,20,11,45,8.50
2009,02,20,11,46,8.50
2009,02,20,11,47,8.50
2009,02,20,11,48,8.60
2009,02,20,11,49,8.70
2009,02,20,11,50,8.80
2009,02,20,11,51,8.80
2009,02,20,11,52,8.80
2009,02,20,11,53,8.80
2009,02,20,11,54,8.80
2009,02,20,11,55,8.90
2009,02,20,11,56,8.90
2009,02,20,11,57,8.90
2009,02,20,11,58,8.90
2009,02,20,11,59,8.90
2009,02,20,12,00,8.90
2009,02,20,12,01,8.90
2009,02,20,12,02,8.90
2009,02,20,12,03,8.90
2009,02,20,12,04,9.00
2009,02,20,12,05,9.00
2009,02,20,12,06,9.00
2009,02,20,12,07,9.10
2009,02,20,12,08,9.20
2009,02,20,12,09,9.30
2009,02,20,12,10,9.30
2009,02,20,12,11,9.30
2009,02,20,12,12,9.40
2009,02,20,12,13,9.30
2009,02,20,12,14,9.30
2009,02,20,12,15,9.20
2009,02,20,12,16,9.20
2009,02,20,12,17,9.20
2009,02,20,12,18,9.20
2009,02,20,12,19,9.30
2009,02,20,12,20,9.40
2009,02,20,12,21,9.50
2009,02,20,12,22,9.60
2009,02,20,12,23,9.70
2009,02,20,12,24,9.70
2009,02,20,12,25,9.60
2009,02,20,12,26,9.60
2009,02,20,12,27,9.60
2009,02,20,12,28,9.60
2009,02,20,12,29,9.60
2009,02,20,12,30,9.60
2009,02,20,12,31,9.50
2009,02,20,12,32,9.40
2009,02,20,12,33,9.30
2009,02,20,12,34,9.30
2009,02,20,12,35,9.40
2009,02,20,12,36,9.50
2009,02,20,12,37,9.60
2009,02,20,12,38,9.70
2009,02,20,12,39,9.80
2009,02,20,12,40,9.80
2009,02,20,12,41,9.90
2009,02,20,12,42,9.80
2009,02,20,12,43,9.80
2009,02,20,12,44,9.70
2009,02,20,12,45,9.60
2009,02,20,12,46,9.60
2009,02,20,12,47,9.50
2009,02,20,12,48,9.50
2009,02,20,12,49,9.40
2009,02,20,12,50,9.40
2009,02,20,12,51,9.50
2009,02,20,12,52,9.60
2009,02,20,12,53,9.70
2009,02,20,12,54,9.70
2009,02,20,12,55,9.70
2009,02,20,12,56,9.60
2009,02,20,12,57,9.60
2009,02,20,12,58,9.50
2009,02,20,12,59,9.50
2009,02,20,13,00,9.50
2009,02,20,13,01,9.60
2009,02,20,13,02,9.70
2009,02,20,13,03,9.70
2009,02,20,13,04,9.80
2009,02,20,13,05,9.80
2009,02,20,13,06,9.90
2009,02,20,13,07,10.00
2009,02,20,13,08,10.10
2009,02,20,13,09,10.20
2009,02,20,13,10,10.10
2009,02,20,13,11,10.00
2009,02,20,13,12,10.10
2009,02,20,13,13,10.10
2009,02,20,13,14,9.90
2009,02,20,13,15,9.90
2009,02,20,13,16,9.90
2009,02,20,13,17,9.90
2009,02,20,13,18,9.80
2009,02,20,13,19,9.80
2009,02,20,13,20,9.90
2009,02,20,13,21,10.10
2009,02,20,13,22,10.20
2009,02,20,13,23,10.40
2009,02,20,13,24,10.60
2009,02,20,13,25,10.70
2009,02,20,13,26,10.80
2009,02,20,13,27,10.90
2009,02,20,13,28,10.90
2009,02,20,13,29,10.90
2009,02,20,13,30,10.90
2009,02,20,13,31,10.90
2009,02,20,13,32,10.80
2009,02,20,13,33,10.70
2009,02,20,13,34,10.70
2009,02,20,13,35,10.70
2009,02,20,13,36,10.70
2009,02,20,13,37,10.60
2009,02,20,13,38,10.60
2009,02,20,13,39,10.60
2009,02,20,13,40,10.60
2009,02,20,13,41,10.70
2009,02,20,13,42,10.80
2009,02,20,13,43,10.90
2009,02,20,13,44,10.90
2009,02,20,13,45,10.90
2009,02,20,13,46,10.90
2009,02,20,13,47,11.00
2009,02,20,13,48,11.10
2009,02,20,13,49,11.10
2009,02,20,13,50,11.10
2009,02,20,13,51,10.90
2009,02,20,13,52,10.80
2009,02,20,13,53,10.70
2009,02,20,13,54,10.70
2009,02,20,13,55,10.70
2009,02,20,13,56,10.70
2009,02,20,13,57,10.60
2009,02,20,13,58,10.50
2009,02,20,13,59,10.40
2009,02,20,14,00,10.40
2009,02,20,14,01,10.40
2009,02,20,14,02,10.40
2009,02,20,14,03,10.40
2009,02,20,14,04,10.50
2009,02,20,14,05,10.60
2009,02,20,14,06,10.50
2009,02,20,14,07,10.40
2009,02,20,14,08,10.40
2009,02,20,14,09,10.40
2009,02,20,14,10,10.40
2009,02,20,14,11,10.40
2009,02,20,14,12,10.50
2009,02,20,14,13,10.50
2009,02,20,14,14,10.40
2009,02,20,14,15,10.40
2009,02,20,14,16,10.40
2009,02,20,14,17,10.50
2009,02,20,14,18,10.60
2009,02,20,14,19,10.60
2009,02,20,14,20,10.60
2009,02,20,14,21,10.60
2009,02,20,14,22,10.70
2009,02,20,14,23,10.80
2009,02,20,14,24,10.90
2009,02,20,14,25,10.90
2009,02,20,14,26,11.00
2009,02,20,14,27,11.10
2009,02,20,14,28,11.10
2009,02,20,14,29,11.20
2009,02,20,14,30,11.30
2009,02,20,14,31,11.30
2009,02,20,14,32,11.20
2009,02,20,14,33,11.10
2009,02,20,14,34,11.10
2009,02,20,14,35,11.00
2009,02,20,14,36,10.90
2009,02,20,14,37,11.10
2009,02,20,14,38,11.10
2009,02,20,14,39,11.10
2009,02,20,14,40,11.10
2009,02,20,14,41,11.10
2009,02,20,14,42,11.10
2009,02,20,14,43,10.90
2009,02,20,14,44,10.80
2009,02,20,14,45,10.70
2009,02,20,14,46,10.60
2009,02,20,14,47,10.60
2009,02,20,14,48,10.60
2009,02,20,14,49,10.60
2009,02,20,14,50,10.60
2009,02,20,14,51,10.60
2009,02,20,14,52,10.60
2009,02,20,14,53,10.60
2009,02,20,14,54,10.60
2009,02,20,14,55,10.60
2009,02,20,14,56,10.50
2009,02,20,14,57,10.40
2009,02,20,14,58,10.40
2009,02,20,14,59,10.40
2009,02,20,15,00,10.30
2009,02,20,15,01,10.40
2009,02,20,15,02,10.40
2009,02,20,15,03,10.40
2009,02,20,15,04,10.30
2009,02,20,15,05,10.30
2009,02,20,15,06,10.30
2009,02,20,15,07,10.30
2009,02,20,15,08,10.20
2009,02,20,15,09,10.20
2009,02,20,15,10,10.30
2009,02,20,15,11,10.30
2009,02,20,15,12,10.30
2009,02,20,15,13,10.40
2009,02,20,15,14,10.40
2009,02,20,15,15,10.40
2009,02,20,15,16,10.40
2009,02,20,15,17,10.40
2009,02,20,15,18,10.40
2009,02,20,15,19,10.50
2009,02,20,15,20,10.60
2009,02,20,15,21,10.60
2009,02,20,15,22,10.60
2009,02,20,15,23,10.60
2009,02,20,15,24,10.70
2009,02,20,15,25,10.80
2009,02,20,15,26,10.90
2009,02,20,15,27,10.80
2009,02,20,15,28,10.80
2009,02,20,15,29,10.70
2009,02,20,15,30,10.60
2009,02,20,15,31,10.50
2009,02,20,15,32,10.40
2009,02,20,15,33,10.40
2009,02,20,15,34,10.30
2009,02,20,15,35,10.30
2009,02,20,15,36,10.40
2009,02,20,15,37,10.40
2009,02,20,15,38,10.40
2009,02,20,15,39,10.40
2009,02,20,15,40,10.40
2009,02,20,15,41,10.30
2009,02,20,15,42,10.30
2009,02,20,15,43,10.20
2009,02,20,15,44,10.20
2009,02,20,15,45,10.20
2009,02,20,15,46,10.20
2009,02,20,15,47,10.30
2009,02,20,15,48,10.30
2009,02,20,15,49,10.20
2009,02,20,15,50,10.20
2009,02,20,15,51,10.20
2009,02,20,15,52,10.20
2009,02,20,15,53,10.20
2009,02,20,15,54,10.30
2009,02,20,15,55,10.30
2009,02,20,15,56,10.40
2009,02,20,15,57,10.50
2009,02,20,15,58,10.60
2009,02,20,15,59,10.70
2009,02,20,16,00,10.80
2009,02,20,16,01,10.80
2009,02,20,16,02,10.80
2009,02,20,16,03,10.80
2009,02,20,16,04,10.80
2009,02,20,16,05,10.80
2009,02,20,16,06,10.80
2009,02,20,16,07,10.70
2009,02,20,16,08,10.70
2009,02,20,16,09,10.70
2009,02,20,16,10,10.60
2009,02,20,16,11,10.60
2009,02,20,16,12,10.40
2009,02,20,16,13,10.40
2009,02,20,16,14,10.40
2009,02,20,16,15,10.40
2009,02,20,16,16,10.40
2009,02,20,16,17,10.40
2009,02,20,16,18,10.40
2009,02,20,16,19,10.30
2009,02,20,16,20,10.20
2009,02,20,16,21,10.20
2009,02,20,16,22,10.10
2009,02,20,16,23,10.10
2009,02,20,16,24,10.10
2009,02,20,16,25,10.10
2009,02,20,16,26,10.10
2009,02,20,16,27,9.90
2009,02,20,16,28,9.90
2009,02,20,16,29,9.90
2009,02,20,16,30,9.90
2009,02,20,16,31,9.90
2009,02,20,16,32,9.90
2009,02,20,16,33,9.90
2009,02,20,16,34,9.90
2009,02,20,16,35,10.10
2009,02,20,16,36,10.10
2009,02,20,16,37,10.10
2009,02,20,16,38,10.10
2009,02,20,16,39,10.10
2009,02,20,16,40,10.10
2009,02,20,16,41,10.10
2009,02,20,16,42,10.10
2009,02,20,16,43,9.90
2009,02,20,16,44,9.90
2009,02,20,16,45,9.90
2009,02,20,16,46,9.90
2009,02,20,16,47,9.90
2009,02,20,16,48,9.90
2009,02,20,16,49,9.80
2009,02,20,16,50,9.80
2009,02,20,16,51,9.80
2009,02,20,16,52,9.70
2009,02,20,16,53,9.70
2009,02,20,16,54,9.70
2009,02,20,16,55,9.60
2009,02,20,16,56,9.60
2009,02,20,16,57,9.60
2009,02,20,16,58,9.60
2009,02,20,16,59,9.50
2009,02,20,17,00,9.50
2009,02,20,17,01,9.50
2009,02,20,17,02,9.50
2009,02,20,17,03,9.50
2009,02,20,17,04,9.40
2009,02,20,17,05,9.40
2009,02,20,17,06,9.40
2009,02,20,17,07,9.40
2009,02,20,17,08,9.40
2009,02,20,17,09,9.30
2009,02,20,17,10,9.30
2009,02,20,17,11,9.30
2009,02,20,17,12,9.30
2009,02,20,17,13,9.30
2009,02,20,17,14,9.30
2009,02,20,17,15,9.20
2009,02,20,17,16,9.20
2009,02,20,17,17,9.20
2009,02,20,17,18,9.20
2009,02,20,17,19,9.20
2009,02,20,17,20,9.10
2009,02,20,17,21,9.10
2009,02,20,17,22,9.10
2009,02,20,17,23,9.10
2009,02,20,17,24,9.10
2009,02,20,17,25,9.00
2009,02,20,17,26,9.00
2009,02,20,17,27,9.00
2009,02,20,17,28,9.00
2009,02,20,17,29,9.00
2009,02,20,17,30,8.90
2009,02,20,17,31,8.90
2009,02,20,17,32,8.90
2009,02,20,17,33,8.80
2009,02,20,17,34,8.80
2009,02,20,17,35,8.70
2009,02,20,17,36,8.70
2009,02,20,17,37,8.70
2009,02,20,17,38,8.70
2009,02,20,17,39,8.50
2009,02,20,17,40,8.40
2009,02,20,17,41,8.40
2009,02,20,17,42,8.20
2009,02,20,17,43,8.20
2009,02,20,17,44,8.00
2009,02,20,17,45,8.00
2009,02,20,17,46,7.90
2009,02,20,17,47,7.80
2009,02,20,17,48,7.80
2009,02,20,17,49,7.70
2009,02,20,17,50,7.70
2009,02,20,17,51,7.60
2009,02,20,17,52,7.60
2009,02,20,17,53,7.50
2009,02,20,17,54,7.50
2009,02,20,17,55,7.40
2009,02,20,17,56,7.40
2009,02,20,17,57,7.30